KE0RUZ Weather Reports


Display with metric or nautical units.
time (UTC)temp
F
wind
direction
speed
MPH
gust
MPH
rain 1hr
in
rain 24hr
in
rain mn
in
humidity
%
barometer
mb
20260902231605 98 210 1.0 3.0 0.00 0.00 0.00 40 1014.5
20260902230108 99 157 3.0 7.0 0.00 0.00 0.00 38 1014.6
20260902224555 100 133 0.0 6.0 0.00 0.00 0.00 36 1014.6
20260902223051 100 243 3.0 6.0 0.00 0.00 0.00 36 1014.8
20260902221549 100 243 3.0 9.0 0.00 0.00 0.00 36 1014.9
20260902220044 101 276 1.0 8.0 0.00 0.00 0.00 38 1015.0
20260902214605 100 186 2.0 8.0 0.00 0.00 0.00 39 1015.1
20260902213049 100 242 1.0 5.0 0.00 0.00 0.00 38 1015.3
20260902211556 100 114 3.0 7.0 0.00 0.00 0.00 39 1015.4
20260902210056 100 233 4.0 10.0 0.00 0.00 0.00 38 1015.5
20260902204555 101 166 4.0 7.0 0.00 0.00 0.00 38 1015.6
20260902203050 100 111 3.0 7.0 0.00 0.00 0.00 39 1015.9
20260902201547 99 200 6.0 10.0 0.00 0.00 0.00 40 1016.3
20260902200055 99 255 1.0 9.0 0.00 0.00 0.00 41 1016.4
20260902194554 99 219 5.0 8.0 0.00 0.00 0.00 41 1016.6
20260902193050 100 205 3.0 8.0 0.00 0.00 0.00 41 1016.8
20260902191554 98 161 3.0 11.0 0.00 0.00 0.00 42 1017.0
20260902190054 98 249 4.0 9.0 0.00 0.00 0.00 42 1017.1
20260902184557 99 121 2.0 7.0 0.00 0.00 0.00 43 1017.3
20260902183054 99 171 4.0 8.0 0.00 0.00 0.00 43 1017.7
20260902181555 97 198 3.0 7.0 0.00 0.00 0.00 45 1018.1
20260902180103 97 134 4.0 9.0 0.00 0.00 0.00 46 1018.3
20260902174603 96 248 3.0 8.0 0.00 0.00 0.00 48 1018.5
20260902173049 96 240 3.0 10.0 0.00 0.00 0.00 49 1018.7
20260902171605 95 125 2.0 8.0 0.00 0.00 0.00 49 1018.8
20260902164602 95 245 4.0 8.0 0.00 0.00 0.00 50 1019.2
20260902163057 93 154 4.0 8.0 0.00 0.00 0.00 52 1019.3
20260902161559 93 231 2.0 8.0 0.00 0.00 0.00 53 1019.4
20260902160050 92 233 3.0 8.0 0.00 0.00 0.00 55 1019.5
20260902154545 91 263 4.0 11.0 0.00 0.00 0.00 56 1019.5
20260902153053 90 240 4.0 11.0 0.00 0.00 0.00 57 1019.4
20260902151554 89 256 4.0 10.0 0.00 0.00 0.00 59 1019.4
20260902150048 89 222 5.0 12.0 0.00 0.00 0.00 60 1019.4
20260902144632 88 221 4.0 10.0 0.00 0.00 0.00 60 1019.3
20260902143057 87 221 3.0 12.0 0.00 0.00 0.00 61 1019.4
20260902141549 86 207 4.0 8.0 0.00 0.00 0.00 62 1019.5
20260902140051 85 219 3.0 10.0 0.00 0.00 0.00 63 1019.5
20260902134600 86 170 2.0 7.0 0.00 0.00 0.00 64 1019.3
20260902133059 83 209 3.0 7.0 0.00 0.00 0.00 68 1019.4
20260902131552 81 226 1.0 4.0 0.00 0.00 0.00 72 1019.6
20260902130047 80 0 0.0 3.0 0.00 0.00 0.00 73 1019.3
20260902124600 78 89 0.0 1.0 0.00 0.00 0.00 75 1019.2
20260902123059 78 184 0.0 2.0 0.00 0.00 0.00 75 1019.1
20260902121601 77 0 0.0 1.0 0.00 0.00 0.00 76 1018.9
20260902120053 77 0 0.0 3.0 0.00 0.00 0.00 76 1018.8
20260902114606 77 127 1.0 3.0 0.00 0.00 0.00 76 1018.6
20260902113100 77 122 1.0 2.0 0.00 0.00 0.00 76 1018.5
20260902111600 77 0 0.0 1.0 0.00 0.00 0.00 75 1018.6
20260902110049 77 0 0.0 1.0 0.00 0.00 0.00 75 1018.4
20260902104547 78 0 0.0 1.0 0.00 0.00 0.00 74 1018.4
20260902103116 78 0 0.0 2.0 0.00 0.00 0.00 74 1018.3
20260902101547 78 148 0.0 3.0 0.00 0.00 0.00 73 1018.3
20260902100049 79 107 0.0 3.0 0.00 0.00 0.00 72 1018.2
20260902094549 79 129 0.0 3.0 0.00 0.00 0.00 72 1018.2
20260902093045 79 110 0.0 3.0 0.00 0.00 0.00 71 1018.1
20260902091555 80 221 0.0 6.0 0.00 0.00 0.00 70 1018.0
20260902090104 80 231 1.0 4.0 0.00 0.00 0.00 70 1017.8
20260902084545 80 248 1.0 5.0 0.00 0.00 0.00 69 1017.9
20260902083055 81 114 2.0 6.0 0.00 0.00 0.00 69 1017.7
20260902081553 81 0 0.0 4.0 0.00 0.00 0.00 68 1017.8
20260902080048 81 165 2.0 5.0 0.00 0.00 0.00 68 1017.9
20260902074556 81 165 0.0 5.0 0.00 0.00 0.00 68 1017.7
20260902073058 81 171 1.0 4.0 0.00 0.00 0.00 68 1017.7
20260902071550 81 139 1.0 4.0 0.00 0.00 0.00 68 1017.7
20260902070049 81 141 1.0 5.0 0.00 0.00 0.00 67 1017.8
20260902064547 81 165 2.0 4.0 0.00 0.00 0.00 67 1017.8
20260902063056 81 138 1.0 4.0 0.00 0.00 0.00 66 1017.8
20260902061554 82 207 2.0 4.0 0.00 0.00 0.00 66 1017.8
20260902060104 82 116 1.0 4.0 0.00 0.00 0.00 65 1017.8
20260902054545 82 133 1.0 4.0 0.00 0.00 0.00 64 1017.7
20260902053103 82 119 0.0 4.0 0.00 0.00 0.00 63 1017.6
20260902051555 83 153 1.0 3.0 0.00 0.00 0.00 62 1017.6
20260902044602 84 253 0.0 5.0 0.00 0.00 0.00 60 1017.6
20260902043058 84 172 1.0 5.0 0.00 0.00 0.00 60 1017.5
20260902041552 84 159 1.0 6.0 0.00 0.00 0.00 59 1017.1
20260902040103 84 128 2.0 6.0 0.00 0.00 0.00 59 1017.3
20260902034606 84 126 1.0 3.0 0.00 0.00 0.00 59 1017.4
20260902033103 84 157 2.0 4.0 0.00 0.00 0.00 59 1017.3
20260902031557 84 140 1.0 2.0 0.00 0.00 0.00 59 1017.1
20260902030057 85 130 0.0 1.0 0.00 0.00 0.00 58 1017.0
20260902024556 85 134 0.0 2.0 0.00 0.00 0.00 57 1016.7
20260902023054 85 127 0.0 2.0 0.00 0.00 0.00 57 1016.6
20260902021550 85 0 0.0 1.0 0.00 0.00 0.00 58 1016.4
20260902020055 84 145 0.0 1.0 0.00 0.00 0.00 58 1016.3
20260902014552 83 0 0.0 1.0 0.00 0.00 0.00 61 1016.1
20260902013049 83 0 0.0 0.0 0.00 0.00 0.00 63 1015.9
20260902011547 85 0 0.0 0.0 0.00 0.00 0.00 60 1015.9
20260902010121 87 0 0.0 0.0 0.00 0.00 0.00 55 1015.8
20260902004555 90 0 0.0 0.0 0.00 0.00 0.00 53 1015.8
20260902003055 92 0 0.0 1.0 0.00 0.00 0.00 48 1015.9
20260902001554 93 0 0.0 1.0 0.00 0.00 0.00 47 1015.9
20260902000047 95 234 0.0 5.0 0.00 0.00 0.00 43 1016.0
20260901234609 96 0 0.0 2.0 0.00 0.00 0.00 43 1016.0
20260901233101 97 0 0.0 2.0 0.00 0.00 0.00 42 1016.3